Location: Castelnau
(43.6639°N, 0.8431°W)
Time: 17:13:59
(UTC+00:00)

Cosmos 540 Rocket - Pass Details

Date: 13 January 2026
Orbit: 736 x 747 km, 74.1° (Epoch: 10 February)

Event Time Altitude Azimuth Distance (km) Brightness Sun altitude
Rises 06:41:57 0° 343° (NNW) 3,176 6.3 -9.5°
Reaches altitude 10° 06:44:23 10° 349° (N) 2,250 5.6 -9.1°
Maximum altitude 06:49:20 51° 65° (ENE) 931 4.3 -8.2°
Drops below altitude 10° 06:54:15 10° 141° (SE) 2,238 7.0 -7.4°
Sets 06:56:39 0° 147° (SSE) 3,158 7.7 -7.0°
